Flag for Congo Dem.Rep. Weather past 2 weeks in Bukavu, Congo Dem.Rep.

Now
61 °F

Clear.


Feels Like: 61 °F
Forecast: 49 / 75 °F
Wind: 5 mph from West

Location: Kigali Airport

Current Time: Jul 29, 2015 at 4:55:38 AM

Latest Report: Jul 29, 2015 at 4:00 AM


Visibility: 10 mi

Pressure: 30.12 "Hg (24.61 "Hg at 1710m altitude)

Humidity: 68%

Dew point: 50 °F

Location of BukavuLocation

Historic Weather in Bukavu — Graph

°F

Bukavu temperature yesterday

Maximum temperature yesterday: 84 °F (at 3:30 PM)
Minimum temperature yesterday: 61 °F (at 5:00 AM)
Average temperature yesterday: 72 °F

Past Weeks' High & Low Weather Summary

 TemperatureHumidityPressure
High88 °F (Jul 16, 4:00 PM)100% (Jul 15, 6:00 AM)30.24 "Hg (Jul 15, 6:00 AM)
Low52 °F (Jul 15, 6:00 AM)29% (Jul 28, 3:30 PM)30.04 "Hg (Jul 25, 4:00 PM)
Average73 °F56%30.14 "Hg
* Reported Jul 14 3:00 AM — Jul 29 3:00 AM, Bukavu, Weather by CustomWeather, © 2015

Note: Actual official high and low records may vary slightly from our data, if they occured in-between our weather recording intervals... More about our weather records

Advertising

Bukavu weather history for previous 24 hours

 ConditionsComfort  
Time TempWeatherWind HumidityBarometerVisibility
3:00 AM
Wed, Jul 29
63 °FClear.5 mph64%30.12 "Hg10 mi
2:30 AM64 °FClear.5 mph60%30.12 "Hg10 mi
2:00 AM63 °FClear.3 mph68%30.12 "Hg10 mi
1:30 AM64 °FClear.3 mph64%30.12 "Hg10 mi
1:00 AM64 °FClear.7 mph64%30.12 "Hg10 mi
11:30 PM
Tue, Jul 28
66 °FClear.No wind60%30.15 "Hg10 mi
11:00 PM68 °FClear.No wind56%30.15 "Hg10 mi
10:30 PM68 °FClear.No wind56%30.15 "Hg10 mi
10:00 PM70 °FClear.3 mph50%30.15 "Hg10 mi
9:30 PM72 °FPassing clouds.No wind47%30.12 "HgN/A
8:00 PM75 °FPassing clouds.No wind39%30.09 "HgN/A
7:00 PM79 °FPassing clouds.5 mph37%30.07 "HgN/A
6:30 PM79 °FPassing clouds.5 mph37%30.07 "HgN/A
6:00 PM79 °FScattered clouds.5 mph37%30.07 "HgN/A
5:30 PM82 °FPassing clouds.5 mph30%30.07 "HgN/A
5:00 PM82 °FPassing clouds.5 mph30%30.07 "HgN/A
4:30 PM82 °FPassing clouds.5 mph30%30.07 "HgN/A
4:00 PM82 °FPassing clouds.6 mph30%30.07 "HgN/A
3:30 PM84 °FPassing clouds.9 mph29%30.07 "HgN/A
3:00 PM82 °FPassing clouds.9 mph30%30.07 "HgN/A
2:30 PM82 °FPassing clouds.9 mph30%30.09 "HgN/A
2:00 PM82 °FPassing clouds.9 mph32%30.09 "HgN/A
1:30 PM81 °FPassing clouds.8 mph34%30.12 "HgN/A
1:00 PM81 °FPassing clouds.12 mph32%30.12 "HgN/A
12:30 PM81 °FPassing clouds.9 mph34%30.15 "HgN/A
11:30 AM79 °FScattered clouds.9 mph37%30.18 "HgN/A
11:00 AM77 °FScattered clouds.10 mph39%30.18 "HgN/A
10:30 AM77 °FSunny.9 mph39%30.18 "Hg10 mi
10:00 AM77 °FClear.10 mph36%30.18 "Hg6 mi
9:30 AM73 °FClear.3 mph50%30.18 "Hg5 mi
9:00 AM73 °FClear.No wind57%30.18 "Hg5 mi
8:30 AM70 °FClear.No wind57%30.18 "Hg5 mi
8:00 AM68 °FClear.3 mph60%30.18 "Hg5 mi
7:30 AM64 °FClear.6 mph68%30.15 "Hg5 mi
7:00 AM61 °FClear.3 mph77%30.15 "Hg5 mi
6:30 AM61 °FClear.5 mph77%30.15 "Hg5 mi
6:00 AM61 °FClear.3 mph77%30.12 "Hg5 mi
5:30 AM61 °FClear.5 mph77%30.12 "Hg10 mi
5:00 AM61 °FClear.5 mph77%30.12 "Hg10 mi
4:30 AM63 °FClear.3 mph73%30.09 "Hg10 mi
4:00 AM63 °FClear.3 mph73%30.09 "Hg10 mi
Weather by CustomWeather, © 2015

See weather overviewHow to use our weather pages